Change the Weather History Date:

Sunday, December 9, 2012

  Actual Average Record
Temperature  
Mean Temperature 63 °F 46 °F  
Max Temperature 72 °F 57 °F 78 °F (2007)
Min Temperature 54 °F 36 °F 10 °F (1917)
Degree Days  
Heating Degree Days 2 19  
Month to date heating degree days 53 157  
Since 1 July heating degree days 577 637  
Growing Degree Days 13 (Base 50)    
Moisture  
Dew Point 56 °F    
Average Humidity 79    
Maximum Humidity 100    
Minimum Humidity 57    
Precipitation  
Precipitation 0.00 in 0.12 in 2.81 in (1919)
Month to date precipitation 0.01 1.12  
Year to date precipitation 31.51 43.72  
Snow  
Snow 0.00 in 0.00 in 0.00 in (2001)
Month to date snowfall 0.0 0.0  
Since 1 July snowfall 0.0 0.0  
Snow Depth -    
Sea Level Pressure  
Sea Level Pressure 30.06 in    
Wind  
Wind Speed 2 mph (South)    
Max Wind Speed 8 mph    
Max Gust Speed 14 mph    
Visibility 8 miles    
Events      
T = Trace of Precipitation, MM = Missing Value Source: NWS Daily Summary

Daily Weather History Graph

Daily Weather History Graph

Search for Another Location

Airport or City:

Trip Planner

Search our weather history database for the weather conditions in past years. The results will help you decide how hot, cold, wet, or windy it might be!

Date:

Astronomy

Dec. 09, 2012 Rise Set
Actual Time 7:27 AM EST 5:24 PM EST
Civil Twilight 6:59 AM EST 5:52 PM EST
Nautical Twilight 6:28 AM EST 6:23 PM EST
Astronomical Twilight 5:58 AM EST 6:53 PM EST
Moon 3:07 AM EST (12/9) 2:23 PM EST (12/9)
Length of Visible Light 10h 52m
Length of Day
9h 57m
Waning Crescent, 19% of the Moon is Illuminated
Dec 9
Waning Crescent
Dec 13
New
Dec 20
First Quarter
Dec 28
Full
Jan 4
Last Quarter

Hourly Weather History & Observations

Time (EST) Temp. Dew Point Humidity Pressure Visibility Wind Dir Wind Speed Gust Speed Precip Events Conditions
12:51 AM 57.0 °F 54.0 °F 89% 30.05 in 10.0 mi Calm Calm - N/A   Mostly Cloudy
1:51 AM 55.4 °F 53.6 °F 94% 30.05 in 8.0 mi Calm Calm - N/A   Mostly Cloudy
2:51 AM 55.0 °F 54.0 °F 96% 30.05 in 8.0 mi Calm Calm - N/A   Overcast
3:09 AM 53.6 °F 53.6 °F 100% 30.05 in 6.0 mi Calm Calm - N/A   Overcast
3:23 AM 53.6 °F 53.6 °F 100% 30.05 in 7.0 mi Calm Calm - N/A   Mostly Cloudy
3:51 AM 55.0 °F 54.0 °F 96% 30.05 in 6.0 mi Calm Calm - N/A   Overcast
4:13 AM 55.4 °F 53.6 °F 94% 30.05 in 7.0 mi Calm Calm - N/A   Overcast
4:51 AM 55.9 °F 54.0 °F 93% 30.05 in 7.0 mi Calm Calm - N/A   Overcast
5:51 AM 55.9 °F 54.0 °F 93% 30.06 in 7.0 mi Calm Calm - N/A   Mostly Cloudy
6:51 AM 57.0 °F 55.0 °F 93% 30.08 in 6.0 mi Calm Calm - N/A   Overcast
7:51 AM 57.0 °F 55.0 °F 93% 30.10 in 5.0 mi Calm Calm - N/A   Mostly Cloudy
8:21 AM 57.2 °F 55.4 °F 94% 30.10 in 5.0 mi Calm Calm - N/A   Overcast
8:51 AM 59.0 °F 55.9 °F 90% 30.10 in 5.0 mi Calm Calm - N/A   Overcast
9:38 AM 60.8 °F 57.2 °F 88% 30.11 in 6.0 mi SSW 3.5 mph - N/A   Overcast
9:49 AM 60.8 °F 57.2 °F 88% 30.12 in 6.0 mi Calm Calm - N/A   Overcast
9:51 AM 60.1 °F 57.0 °F 90% 30.12 in 6.0 mi Calm Calm - N/A   Overcast
10:51 AM 61.0 °F 59.0 °F 93% 30.12 in 3.0 mi SW 3.5 mph - N/A   Overcast
11:51 AM 64.0 °F 59.0 °F 84% 30.09 in 6.0 mi SSW 4.6 mph - N/A   Haze
12:11 PM 64.4 °F 59.0 °F 83% 30.08 in 6.0 mi SW 3.5 mph - N/A   Haze
12:39 PM 66.2 °F 59.0 °F 78% 30.07 in 7.0 mi Calm Calm - N/A   Mostly Cloudy
12:51 PM 66.9 °F 59.0 °F 76% 30.06 in 7.0 mi Calm Calm - N/A   Mostly Cloudy
1:46 PM 71.6 °F 57.2 °F 60% 30.04 in 10.0 mi Variable 5.8 mph - N/A   Mostly Cloudy
1:51 PM 70.0 °F 57.0 °F 63% 30.03 in 10.0 mi Variable 4.6 mph - N/A   Mostly Cloudy
2:51 PM 70.0 °F 55.0 °F 59% 30.02 in 10.0 mi Calm Calm - N/A   Scattered Clouds
3:51 PM 71.6 °F 57.2 °F 60% 30.03 in 10.0 mi Variable 6.9 mph - N/A   Partly Cloudy
4:51 PM 69.8 °F 53.6 °F 56% 30.03 in 10.0 mi Calm Calm - N/A   Mostly Cloudy
5:51 PM 64.0 °F 54.0 °F 70% 30.03 in 10.0 mi Calm Calm - N/A   Mostly Cloudy
6:51 PM 61.0 °F 54.0 °F 78% 30.03 in 10.0 mi SE 4.6 mph - N/A   Overcast
7:51 PM 61.0 °F 55.9 °F 83% 30.03 in 10.0 mi SE 4.6 mph - N/A   Mostly Cloudy
8:51 PM 59.0 °F 57.0 °F 93% 30.01 in 9.0 mi SSE 4.6 mph - N/A   Clear
9:51 PM 57.9 °F 57.0 °F 97% 30.01 in 8.0 mi South 4.6 mph - N/A   Clear
10:51 PM 57.9 °F 57.0 °F 97% 30.00 in 7.0 mi South 3.5 mph - N/A   Clear
11:51 PM 57.2 °F 57.2 °F 100% 29.98 in 6.0 mi SSE 3.5 mph - N/A   Clear